Location: Newark
(44.4156°N, 12.1972°E)
Time: 18:51:18
(UTC+00:00)

STARLINK-1075 - Pass Details

Date: 29 January 2020
Orbit: 349 x 350 km, 53.0° (Epoch: 18 February)

Event Time Altitude Azimuth Distance (km) Brightness Sun altitude
Rises 17:42:03 0° 306° (NW) 2,168 7.4 -15.6°
Reaches altitude 10° 17:44:08 10° 314° (NW) 1,323 6.1 -15.9°
Maximum altitude 17:46:57 41° 27° (NNE) 523 3.2 -16.4°
Enters shadow 17:47:00 41° 29° (NNE) 524 3.2 -16.4°
